Weather History for KBJI - February, 2014

Change the Weather History Date:

Tuesday, February 11, 2014

  Actual Average Record
Temperature  
Mean Temperature -4 °F -  
Max Temperature 16 °F 18 °F 46 °F (2002)
Min Temperature -24 °F -3 °F -33 °F (1967)
Degree Days  
Heating Degree Days 69    
Moisture  
Dew Point -5 °F    
Average Humidity 78    
Maximum Humidity 87    
Minimum Humidity 66    
Precipitation  
Precipitation 0.00 in - - ()
Sea Level Pressure  
Sea Level Pressure 30.01 in    
Wind  
Wind Speed 7 mph (South)    
Max Wind Speed 25 mph    
Max Gust Speed 32 mph    
Visibility 9 miles    
Events Snow    
Averages and records for this station are not official NWS values.
T = Trace of Precipitation, MM = Missing Value Source: NWS Daily Summary

Daily Weather History Graph

Daily Weather History Graph

Search for Another Location

Airport or City:

Trip Planner

Search our weather history database for the weather conditions in past years. The results will help you decide how hot, cold, wet, or windy it might be!

Date:

Astronomy

Feb. 11, 2014 Rise Set
Actual Time 7:31 AM CST 5:37 PM CST
Civil Twilight 6:59 AM CST 6:09 PM CST
Nautical Twilight 6:23 AM CST 6:45 PM CST
Astronomical Twilight 5:47 AM CST 7:20 PM CST
Moon 2:52 PM CST (2/11) 5:15 AM CST (2/11)
Length of Visible Light 11h 09m
Length of Day
10h 05m
Waxing Gibbous, 91% of the Moon is Illuminated
Feb 11
Waxing Gibbous
Feb 14
Full
Feb 22
Last Quarter
Mar 1
New
Mar 8
First Quarter

Hourly Weather History & Observations

Time (CST) Temp. Windchill Dew Point Humidity Pressure Visibility Wind Dir Wind Speed Gust Speed Precip Events Conditions
12:10 AM -20.6 °F - -26.1 °F 75% 30.32 in 10.0 mi Calm Calm - N/A   Clear
12:29 AM -20.9 °F - -26.7 °F 75% 30.31 in 10.0 mi Calm Calm - N/A   Clear
12:49 AM -24.3 °F - -29.2 °F 78% 30.30 in 10.0 mi Calm Calm - N/A   Clear
1:09 AM -24.0 °F - -28.7 °F 79% 30.30 in 10.0 mi Calm Calm - N/A   Clear
1:29 AM -22.9 °F - -28.1 °F 77% 30.29 in 10.0 mi Calm Calm - N/A   Clear
1:49 AM -24.2 °F -35.4 °F -29.0 °F 78% 30.29 in 10.0 mi SSE 3.5 mph - N/A   Clear
2:10 AM -21.6 °F - -27.0 °F 76% 30.29 in 10.0 mi Calm Calm - N/A   Clear
2:29 AM -22.5 °F -33.6 °F -27.4 °F 78% 30.29 in 10.0 mi South 3.5 mph - N/A   Clear
2:50 AM -20.2 °F - -24.7 °F 80% 30.28 in 10.0 mi Calm Calm - N/A   Clear
3:10 AM -21.1 °F - -25.8 °F 79% 30.27 in 10.0 mi Calm Calm - N/A   Clear
3:29 AM -24.7 °F -38.7 °F -29.2 °F 79% 30.25 in 10.0 mi SE 4.6 mph - N/A   Clear
3:49 AM -21.8 °F -32.8 °F -26.5 °F 79% 30.25 in 10.0 mi SSE 3.5 mph - N/A   Clear
4:10 AM -19.3 °F -32.4 °F -23.4 °F 81% 30.24 in 10.0 mi SSE 4.6 mph - N/A   Clear
4:29 AM -19.1 °F -32.2 °F -23.8 °F 79% 30.24 in 10.0 mi South 4.6 mph - N/A   Clear
4:49 AM -18.9 °F -32.0 °F -23.6 °F 79% 30.22 in 10.0 mi South 4.6 mph - N/A   Clear
5:09 AM -15.2 °F -31.2 °F -20.0 °F 79% 30.21 in 10.0 mi South 6.9 mph - N/A   Clear
5:29 AM -13.4 °F -27.4 °F -18.4 °F 78% 30.21 in 10.0 mi South 5.8 mph - N/A   Clear
5:49 AM -13.5 °F -29.3 °F -18.4 °F 79% 30.20 in 10.0 mi South 6.9 mph - N/A   Clear
6:10 AM -14.1 °F -32.6 °F -18.9 °F 79% 30.18 in 10.0 mi SSE 9.2 mph - N/A   Clear
6:29 AM -14.4 °F -30.3 °F -19.3 °F 79% 30.16 in 10.0 mi SSE 6.9 mph - N/A   Clear
6:49 AM -13.0 °F -30.0 °F -18.2 °F 77% 30.14 in 10.0 mi SSE 8.1 mph - N/A   Clear
7:10 AM -11.6 °F -26.9 °F -16.4 °F 79% 30.14 in 10.0 mi South 6.9 mph - N/A   Clear
7:29 AM -11.2 °F -26.4 °F -15.9 °F 80% 30.13 in 10.0 mi South 6.9 mph - N/A   Clear
7:49 AM -10.5 °F -24.0 °F -15.3 °F 79% 30.12 in 10.0 mi South 5.8 mph - N/A   Clear
8:10 AM -9.4 °F -26.8 °F -14.3 °F 79% 30.12 in 10.0 mi South 9.2 mph - N/A   Clear
8:29 AM -6.7 °F -26.4 °F -11.6 °F 79% 30.10 in 10.0 mi South 12.7 mph - N/A   Clear
8:49 AM -4.9 °F -24.9 °F -10.3 °F 78% 30.09 in 10.0 mi South 13.8 mph 17.3 mph N/A   Clear
9:10 AM -4.0 °F -24.5 °F -9.9 °F 76% 30.07 in 10.0 mi South 15.0 mph 18.4 mph N/A   Clear
9:29 AM -2.4 °F -21.7 °F -9.4 °F 72% 30.06 in 10.0 mi South 13.8 mph - N/A   Clear
9:49 AM -1.5 °F -20.5 °F -8.5 °F 72% 30.05 in 10.0 mi South 13.8 mph 18.4 mph N/A   Clear
10:10 AM 0.5 °F -18.0 °F -7.6 °F 69% 30.05 in 10.0 mi South 13.8 mph 18.4 mph N/A   Clear
10:29 AM 2.1 °F -15.2 °F -6.0 °F 69% 30.03 in 10.0 mi South 12.7 mph - N/A   Clear
10:50 AM 4.5 °F -13.7 °F -4.2 °F 67% 30.01 in 10.0 mi South 15.0 mph 23.0 mph N/A   Clear
11:10 AM 6.3 °F -13.1 °F -2.9 °F 66% 30.01 in 10.0 mi South 18.4 mph 24.2 mph N/A   Mostly Cloudy
11:29 AM 7.3 °F -12.2 °F -1.7 °F 67% 30.00 in 10.0 mi South 19.6 mph 24.2 mph N/A   Overcast
11:49 AM 8.2 °F -10.5 °F -1.1 °F 66% 29.98 in 10.0 mi South 18.4 mph 25.3 mph N/A   Overcast
12:10 PM 8.8 °F -6.8 °F -0.2 °F 67% 29.97 in 10.0 mi South 12.7 mph 19.6 mph N/A   Overcast
12:29 PM 9.3 °F -10.0 °F 1.2 °F 70% 29.95 in 7.0 mi South 20.7 mph 28.8 mph N/A   Overcast
12:49 PM 9.7 °F -6.3 °F 1.6 °F 70% 29.93 in 7.0 mi South 13.8 mph 24.2 mph N/A   Overcast
1:09 PM 10.4 °F -7.7 °F 2.8 °F 72% 29.90 in 5.0 mi South 18.4 mph 27.6 mph N/A   Haze
1:29 PM 11.3 °F -4.9 °F 3.6 °F 71% 29.88 in 7.0 mi SSE 15.0 mph 24.2 mph N/A   Scattered Clouds
1:49 PM 11.3 °F -7.4 °F 3.7 °F 72% 29.86 in 5.0 mi South 20.7 mph 27.6 mph N/A   Haze
2:10 PM 11.7 °F -5.5 °F 4.1 °F 72% 29.84 in 5.0 mi South 17.3 mph 32.2 mph N/A   Haze
2:29 PM 12.2 °F -6.3 °F 4.3 °F 71% 29.82 in 7.0 mi South 20.7 mph 28.8 mph N/A   Overcast
2:49 PM 12.2 °F -5.8 °F 4.8 °F 72% 29.82 in 5.0 mi South 19.6 mph 28.8 mph N/A   Haze
3:10 PM 12.9 °F -4.4 °F 5.5 °F 72% 29.81 in 7.0 mi South 18.4 mph 26.5 mph N/A   Overcast
3:29 PM 13.1 °F -6.7 °F 6.4 °F 75% 29.80 in 7.0 mi South 25.3 mph 31.1 mph N/A   Overcast
3:49 PM 13.1 °F -4.6 °F 6.4 °F 75% 29.82 in 7.0 mi South 19.6 mph 29.9 mph N/A   Overcast
4:10 PM 12.9 °F -3.4 °F 7.0 °F 77% 29.81 in 1.8 mi South 16.1 mph 24.2 mph N/A Snow Light Snow
4:29 PM 12.6 °F -3.8 °F 7.9 °F 82% 29.80 in 1.5 mi South 16.1 mph 25.3 mph N/A Snow Light Snow
4:49 PM 12.7 °F -1.8 °F 7.5 °F 80% 29.82 in 4.0 mi South 12.7 mph 19.6 mph N/A Snow Light Snow
5:10 PM 13.1 °F -2.0 °F 7.7 °F 79% 29.83 in 4.0 mi SSW 13.8 mph - N/A Snow Light Snow
5:29 PM 12.7 °F -1.8 °F 8.8 °F 84% 29.82 in 1.0 mi South 12.7 mph 18.4 mph N/A Snow Light Snow
5:49 PM 12.7 °F -0.4 °F 9.1 °F 86% 29.82 in 2.0 mi South 10.4 mph 17.3 mph N/A Snow Light Snow
6:10 PM 12.7 °F -1.1 °F 9.0 °F 85% 29.82 in 3.0 mi South 11.5 mph - N/A Snow Light Snow
6:29 PM 13.1 °F -0.7 °F 9.0 °F 84% 29.82 in 10.0 mi South 11.5 mph 16.1 mph N/A   Overcast
6:49 PM 13.1 °F -1.4 °F 8.6 °F 82% 29.83 in 10.0 mi South 12.7 mph 17.3 mph N/A   Overcast
7:10 PM 14.0 °F 1.2 °F 9.1 °F 81% 29.84 in 10.0 mi SSW 10.4 mph 16.1 mph N/A   Overcast
7:29 PM 14.0 °F 0.5 °F 9.3 °F 82% 29.84 in 10.0 mi SSW 11.5 mph 17.3 mph N/A   Overcast
7:49 PM 14.5 °F 2.7 °F 9.7 °F 81% 29.84 in 10.0 mi SSW 9.2 mph - N/A   Overcast
8:10 PM 14.7 °F 4.8 °F 10.0 °F 82% 29.84 in 10.0 mi SSW 6.9 mph - N/A   Overcast
8:29 PM 14.9 °F 4.0 °F 10.4 °F 82% 29.85 in 10.0 mi South 8.1 mph - N/A   Overcast
8:49 PM 15.6 °F 7.0 °F 10.9 °F 82% 29.85 in 10.0 mi South 5.8 mph - N/A   Overcast
9:10 PM 16.2 °F 3.9 °F 11.3 °F 81% 29.85 in 10.0 mi SSW 10.4 mph - N/A   Overcast
9:29 PM 16.2 °F 3.9 °F 11.3 °F 81% 29.86 in 10.0 mi SSW 10.4 mph - N/A   Overcast
9:49 PM 16.3 °F 5.7 °F 11.8 °F 82% 29.86 in 10.0 mi SW 8.1 mph - N/A   Overcast
10:10 PM 16.5 °F 8.1 °F 12.0 °F 82% 29.86 in 10.0 mi SW 5.8 mph - N/A   Overcast
10:29 PM 16.3 °F 7.8 °F 12.2 °F 84% 29.87 in 10.0 mi SW 5.8 mph - N/A   Overcast
10:50 PM 16.5 °F 9.4 °F 12.6 °F 84% 29.87 in 10.0 mi SW 4.6 mph - N/A   Overcast
11:10 PM 16.5 °F 8.1 °F 12.7 °F 85% 29.88 in 10.0 mi SW 5.8 mph - N/A Snow Light Snow
11:29 PM 16.5 °F 9.4 °F 12.9 °F 86% 29.88 in 10.0 mi SW 4.6 mph - N/A   Overcast
11:49 PM 16.3 °F 0.1 °F 13.1 °F 87% 29.90 in 7.0 mi WNW 18.4 mph - N/A   Overcast